QPF
0.00 0.00 0.00 0.00 0.00 0.00 0.00 0.00 0.00 0.00 0.00 0.00 0.00 0.00 0.00 0.00 0.00 0.00 0.00 0.00 0.00 0.00 0.00 0.00 0.00 0.01 0.01 0.01 0.00 0.00 0.00 0.00 0.00 0.00 0.00 0.00 0.00 0.00 0.00 0.00 0.00 0.00 0.00 0.00 0.00 0.00 0.00 0.00 0.00
0.00 0.00 0.00 0.00 0.00 0.00 0.00 0.00 0.00 0.00 0.00 0.00 0.00 0.00 0.00 0.00 0.00 0.00 0.00 0.00 0.00 0.00 0.00 0.00 0.00 0.01 0.01 0.00 0.00 0.00 0.00 0.00 0.00 0.00 0.00 0.00 0.00 0.00 0.00 0.00 0.00 0.00 0.00 0.00 0.00 0.00 0.00 0.00 0.00
0.00 0.00 0.00 0.00 0.00 0.00 0.00 0.00 0.00 0.00 0.01 0.01 0.01 0.00 0.00 0.00 0.00 0.00 0.00 0.00 0.00 0.00 0.00 0.00 0.00 0.00 0.00 0.00 0.00 0.00 0.00 0.00 0.00 0.00 0.00 0.00 0.00 0.00 0.00 0.00 0.00 0.00 0.00 0.00 0.00 0.00 0.00 0.00 0.00
0.00 0.00 0.00 0.00 0.00 0.00 0.00 0.00 0.00 0.01 0.02 0.01 0.01 0.00 0.00 0.00 0.00 0.00 0.00 0.00 0.00 0.00 0.00 0.00 0.00 0.00 0.00 0.00 0.00 0.00 0.00 0.00 0.00 0.00 0.00 0.00 0.00 0.00 0.00 0.00 0.00 0.00 0.00 0.00 0.00 0.00 0.00 0.00 0.00
0.00 0.00 0.00 0.00 0.00 0.00 0.00 0.00 0.00 0.01 0.01 0.00 0.01 0.01 0.00 0.00 0.00 0.00 0.00 0.00 0.00 0.00 0.00 0.00 0.00 0.00 0.00 0.00 0.00 0.00 0.00 0.00 0.00 0.00 0.00 0.00 0.00 0.00 0.00 0.00 0.00 0.00 0.00 0.00 0.00 0.00 0.00 0.00 0.00
0.00 0.00 0.00 0.00 0.00 0.00 0.00 0.00 0.00 0.00 0.00 0.00 0.01 0.01 0.00 0.00 0.00 0.00 0.00 0.00 0.00 0.00 0.00 0.00 0.00 0.00 0.00 0.00 0.00 0.00 0.00 0.00 0.00 0.00 0.00 0.00 0.00 0.00 0.00 0.00 0.00 0.00 0.00 0.00 0.00 0.00 0.00 0.00 0.00
0.00 0.00 0.00 0.00 0.00 0.00 0.00 0.00 0.01 0.01 0.01 0.01 0.00 0.00 0.00 0.00 0.00 0.00 0.00 0.00 0.00 0.00 0.00 0.00 0.00 0.00 0.00 0.00 0.00 0.00 0.00 0.00 0.00 0.00 0.00 0.00 0.00 0.00 0.00 0.00 0.00 0.00 0.00 0.00 0.00 0.00 0.00 0.00 0.00
0.00 0.00 0.00 0.00 0.00 0.00 0.00 0.00 0.01 0.01 0.01 0.00 0.00 0.00 0.00 0.00 0.00 0.00 0.00 0.00 0.00 0.00 0.00 0.00 0.00 0.00 0.00 0.00 0.00 0.00 0.00 0.00 0.00 0.00 0.00 0.00 0.00 0.00 0.00 0.00 0.00 0.00 0.00 0.00 0.00 0.00 0.00 0.00 0.00
0.00 0.00 0.00 0.00 0.00 0.00 0.00 0.01 0.01 0.01 0.01 0.00 0.00 0.00 0.00 0.00 0.00 0.00 0.00 0.00 0.00 0.00 0.00 0.00 0.00 0.00 0.00 0.00 0.00 0.00 0.00 0.00 0.00 0.00 0.00 0.00 0.00 0.00 0.00 0.00 0.00 0.00 0.00 0.00 0.00 0.00 0.00 0.00 0.00
0.00 0.00 0.00 0.00 0.00 0.00 0.00 0.00 0.01 0.01 0.01 0.00 0.00 0.00 0.00 0.00 0.00 0.00 0.00 0.00 0.00 0.00 0.00 0.00 0.00 0.00 0.00 0.00 0.00 0.00 0.00 0.00 0.00 0.00 0.00 0.00 0.00 0.00 0.00 0.00 0.00 0.00 0.00 0.00 0.00 0.00 0.00 0.00 0.00
0.00 0.00 0.00 0.00 0.00 0.00 0.00 0.00 0.01 0.01 0.01 0.01 0.00 0.00 0.00 0.00 0.00 0.00 0.00 0.00 0.00 0.00 0.00 0.00 0.00 0.00 0.00 0.00 0.00 0.00 0.00 0.00 0.00 0.00 0.00 0.00 0.00 0.00 0.00 0.00 0.00 0.00 0.00 0.00 0.00 0.00 0.00 0.00 0.00
0.00 0.00 0.00 0.00 0.00 0.00 0.00 0.00 0.00 0.00 0.00 0.01 0.00 0.00 0.00 0.00 0.00 0.00 0.00 0.00 0.00 0.00 0.00 0.00 0.00 0.00 0.00 0.00 0.00 0.00 0.00 0.00 0.00 0.00 0.00 0.00 0.00 0.00 0.00 0.00 0.00 0.00 0.00 0.00 0.00 0.00 0.00 0.00 0.00
0.00 0.00 0.00 0.00 0.00 0.00 0.00 0.00 0.00 0.00 0.00 0.00 0.00 0.00 0.00 0.00 0.00 0.00 0.00 0.00 0.00 0.00 0.00 0.00 0.00 0.00 0.00 0.00 0.00 0.00 0.00 0.00 0.00 0.00 0.00 0.00 0.00 0.00 0.00 0.00 0.00 0.00 0.00 0.00 0.00 0.00 0.00 0.00 0.00
0.00 0.00 0.00 0.00 0.00 0.00 0.00 0.00 0.00 0.00 0.00 0.00 0.00 0.00 0.00 0.00 0.00 0.00 0.00 0.00 0.00 0.00 0.00 0.00 0.00 0.00 0.00 0.00 0.00 0.00 0.00 0.00 0.00 0.00 0.00 0.00 0.00 0.00 0.00 0.00 0.00 0.00 0.00 0.00 0.00 0.00 0.00 0.00 0.00
0.00 0.00 0.00 0.00 0.00 0.00 0.00 0.00 0.00 0.00 0.00 0.00 0.00 0.00 0.00 0.00 0.00 0.00 0.00 0.00 0.00 0.00 0.00 0.00 0.00 0.00 0.00 0.00 0.00 0.00 0.00 0.00 0.00 0.00 0.00 0.00 0.00 0.01 0.01 0.01 0.01 0.01 0.01 0.01 0.01 0.01 0.01 0.01 0.01
0.00 0.00 0.00 0.00 0.00 0.00 0.00 0.00 0.00 0.00 0.00 0.00 0.00 0.00 0.00 0.00 0.00 0.00 0.00 0.00 0.00 0.00 0.00 0.00 0.00 0.01 0.01 0.01 0.01 0.01 0.01 0.01 0.01 0.01 0.02 0.02 0.03 0.03 0.04 0.03 0.02 0.02 0.02 0.02 0.03 0.03 0.02 0.02 0.02
0.00 0.00 0.00 0.00 0.00 0.00 0.00 0.00 0.00 0.00 0.00 0.00 0.00 0.00 0.00 0.00 0.00 0.00 0.00 0.00 0.00 0.00 0.00 0.00 0.00 0.01 0.02 0.02 0.02 0.03 0.05 0.06 0.08 0.08 0.08 0.09 0.07 0.06 0.05 0.05 0.05 0.05 0.05 0.05 0.05 0.04 0.03 0.02 0.02
0.00 0.00 0.00 0.00 0.00 0.00 0.00 0.00 0.00 0.00 0.00 0.00 0.00 0.00 0.00 0.00 0.00 0.00 0.00 0.00 0.00 0.00 0.00 0.01 0.01 0.01 0.03 0.06 0.09 0.12 0.14 0.16 0.19 0.17 0.15 0.13 0.12 0.11 0.10 0.10 0.11 0.10 0.09 0.08 0.07 0.05 0.04 0.03 0.02
0.00 0.00 0.00 0.00 0.00 0.00 0.00 0.00 0.00 0.00 0.00 0.00 0.00 0.00 0.00 0.00 0.00 0.00 0.00 0.00 0.00 0.00 0.01 0.01 0.02 0.03 0.07 0.13 0.19 0.27 0.31 0.30 0.28 0.29 0.29 0.27 0.24 0.20 0.17 0.17 0.15 0.13 0.11 0.08 0.06 0.04 0.03 0.02 0.01
0.00 0.00 0.00 0.00 0.00 0.00 0.00 0.00 0.00 0.00 0.00 0.00 0.00 0.00 0.00 0.00 0.00 0.00 0.00 0.00 0.00 0.00 0.00 0.00 0.01 0.04 0.10 0.19 0.27 0.36 0.44 0.45 0.48 0.54 0.54 0.49 0.39 0.31 0.27 0.23 0.18 0.13 0.10 0.07 0.05 0.04 0.03 0.02 0.01
0.00 0.00 0.00 0.00 0.00 0.00 0.00 0.00 0.00 0.00 0.00 0.00 0.00 0.00 0.00 0.00 0.00 0.00 0.00 0.00 0.00 0.00 0.01 0.01 0.02 0.07 0.19 0.31 0.39 0.48 0.61 0.70 0.73 0.71 0.64 0.57 0.45 0.36 0.32 0.27 0.21 0.14 0.11 0.09 0.07 0.05 0.03 0.02 0.01
0.00 0.00 0.00 0.00 0.00 0.00 0.00 0.00 0.00 0.00 0.00 0.00 0.00 0.00 0.00 0.00 0.00 0.00 0.00 0.00 0.00 0.00 0.01 0.02 0.04 0.12 0.25 0.37 0.48 0.65 0.83 0.88 0.78 0.63 0.50 0.45 0.40 0.36 0.31 0.26 0.21 0.18 0.16 0.11 0.05 0.02 0.01 0.01 0.00
0.00 0.00 0.00 0.00 0.00 0.00 0.00 0.00 0.00 0.00 0.00 0.00 0.00 0.00 0.00 0.00 0.00 0.00 0.00 0.00 0.00 0.01 0.02 0.04 0.10 0.22 0.37 0.54 0.68 0.87 0.99 0.86 0.67 0.53 0.44 0.39 0.34 0.31 0.28 0.25 0.23 0.20 0.13 0.07 0.02 0.01 0.01 0.00 0.00
0.00 0.00 0.00 0.00 0.00 0.00 0.00 0.00 0.00 0.00 0.00 0.00 0.00 0.00 0.00 0.00 0.00 0.00 0.01 0.01 0.01 0.02 0.05 0.09 0.19 0.33 0.49 0.69 0.87 0.98 0.92 0.76 0.57 0.44 0.39 0.37 0.32 0.28 0.24 0.20 0.16 0.10 0.05 0.03 0.01 0.01 0.00 0.00 0.00
0.00 0.00 0.00 0.00 0.00 0.00 0.00 0.00 0.00 0.00 0.00 0.00 0.00 0.01 0.01 0.01 0.01 0.01 0.01 0.02 0.02 0.05 0.08 0.14 0.21 0.40 0.59 0.80 0.96 0.93 0.77 0.58 0.41 0.34 0.30 0.27 0.24 0.21 0.15 0.10 0.07 0.04 0.02 0.02 0.01 0.00 0.00 0.00 0.00
0.00 0.00 0.00 0.00 0.00 0.00 0.00 0.00 0.00 0.01 0.01 0.01 0.01 0.01 0.01 0.01 0.01 0.01 0.02 0.03 0.04 0.07 0.13 0.20 0.31 0.48 0.65 0.71 0.67 0.52 0.39 0.31 0.27 0.25 0.23 0.19 0.14 0.10 0.07 0.05 0.03 0.02 0.01 0.01 0.00 0.00 0.00 0.00 0.00
0.00 0.00 0.00 0.00 0.00 0.00 0.00 0.00 0.00 0.01 0.01 0.01 0.01 0.01 0.01 0.02 0.02 0.03 0.03 0.04 0.06 0.10 0.17 0.23 0.26 0.32 0.34 0.30 0.26 0.20 0.15 0.13 0.13 0.11 0.09 0.07 0.06 0.04 0.03 0.02 0.01 0.01 0.01 0.00 0.00 0.00 0.00 0.00 0.00
0.00 0.00 0.00 0.00 0.00 0.00 0.00 0.00 0.00 0.01 0.01 0.01 0.01 0.01 0.01 0.02 0.02 0.03 0.04 0.04 0.06 0.07 0.08 0.09 0.10 0.10 0.10 0.09 0.08 0.07 0.06 0.05 0.04 0.03 0.04 0.03 0.03 0.03 0.02 0.01 0.01 0.00 0.00 0.00 0.00 0.00 0.00 0.00 0.00
0.00 0.00 0.00 0.00 0.00 0.00 0.00 0.00 0.00 0.00 0.01 0.01 0.01 0.01 0.02 0.02 0.02 0.02 0.03 0.03 0.03 0.03 0.02 0.02 0.02 0.02 0.02 0.03 0.03 0.02 0.02 0.01 0.01 0.01 0.01 0.01 0.01 0.01 0.01 0.01 0.00 0.00 0.00 0.00 0.00 0.00 0.00 0.00 0.00
0.00 0.00 0.00 0.00 0.00 0.00 0.00 0.00 0.00 0.00 0.01 0.01 0.02 0.02 0.02 0.02 0.02 0.02 0.02 0.02 0.02 0.01 0.01 0.01 0.01 0.01 0.01 0.01 0.01 0.00 0.00 0.01 0.01 0.01 0.01 0.01 0.01 0.01 0.01 0.01 0.01 0.01 0.00 0.00 0.00 0.00 0.00 0.00 0.00
MSLP
1012.06 1013.24 1014.56 1015.80 1016.73 1017.23 1017.21 1016.73 1015.91 1014.94 1014.03 1013.34 1012.94 1012.85 1012.98 1013.21 1013.42 1013.50 1013.41 1013.18 1012.88 1012.61 1012.48 1012.53 1012.78 1013.18 1013.64 1014.08 1014.43 1014.66 1014.78 1014.84 1014.90 1015.02 1015.23 1015.52 1015.88 1016.25 1016.57 1016.80 1016.94 1017.01 1017.03 1017.07 1017.15 1017.30 1017.50 1017.73 1017.95
1012.55 1013.89 1015.28 1016.50 1017.34 1017.64 1017.39 1016.65 1015.58 1014.39 1013.32 1012.52 1012.08 1011.98 1012.15 1012.44 1012.71 1012.86 1012.85 1012.69 1012.47 1012.28 1012.22 1012.35 1012.66 1013.11 1013.62 1014.11 1014.50 1014.78 1014.95 1015.05 1015.15 1015.29 1015.52 1015.81 1016.14 1016.46 1016.72 1016.90 1017.00 1017.03 1017.05 1017.08 1017.18 1017.34 1017.54 1017.77 1017.97
1013.10 1014.52 1015.91 1017.04 1017.72 1017.83 1017.36 1016.40 1015.16 1013.84 1012.69 1011.86 1011.43 1011.36 1011.57 1011.91 1012.23 1012.43 1012.46 1012.36 1012.20 1012.07 1012.07 1012.24 1012.59 1013.08 1013.61 1014.12 1014.54 1014.84 1015.04 1015.18 1015.31 1015.48 1015.71 1015.99 1016.28 1016.55 1016.76 1016.89 1016.95 1016.96 1016.98 1017.04 1017.16 1017.35 1017.57 1017.79 1017.98
1013.69 1015.10 1016.41 1017.39 1017.88 1017.79 1017.13 1016.03 1014.69 1013.35 1012.21 1011.42 1011.05 1011.04 1011.30 1011.67 1012.02 1012.24 1012.30 1012.23 1012.10 1012.01 1012.04 1012.24 1012.61 1013.09 1013.62 1014.12 1014.53 1014.84 1015.05 1015.21 1015.37 1015.56 1015.79 1016.05 1016.32 1016.55 1016.72 1016.81 1016.85 1016.87 1016.91 1017.00 1017.17 1017.39 1017.63 1017.86 1018.04
1014.27 1015.59 1016.74 1017.53 1017.81 1017.52 1016.73 1015.56 1014.21 1012.92 1011.88 1011.20 1010.92 1010.99 1011.30 1011.70 1012.05 1012.28 1012.34 1012.28 1012.17 1012.10 1012.15 1012.36 1012.71 1013.17 1013.65 1014.11 1014.49 1014.77 1014.98 1015.16 1015.33 1015.53 1015.78 1016.04 1016.29 1016.50 1016.64 1016.72 1016.76 1016.80 1016.87 1017.01 1017.22 1017.49 1017.76 1018.00 1018.16
1014.79 1015.96 1016.90 1017.45 1017.51 1017.06 1016.17 1014.99 1013.71 1012.54 1011.65 1011.12 1010.96 1011.12 1011.48 1011.89 1012.24 1012.45 1012.50 1012.45 1012.36 1012.31 1012.37 1012.56 1012.89 1013.29 1013.71 1014.10 1014.42 1014.66 1014.85 1015.03 1015.22 1015.45 1015.71 1015.99 1016.24 1016.45 1016.59 1016.67 1016.72 1016.79 1016.90 1017.09 1017.34 1017.64 1017.94 1018.18 1018.33
1015.20 1016.16 1016.85 1017.14 1016.99 1016.40 1015.46 1014.33 1013.17 1012.17 1011.45 1011.09 1011.06 1011.30 1011.69 1012.10 1012.44 1012.64 1012.69 1012.65 1012.58 1012.55 1012.62 1012.81 1013.09 1013.44 1013.78 1014.09 1014.33 1014.53 1014.69 1014.87 1015.08 1015.34 1015.63 1015.94 1016.22 1016.44 1016.59 1016.68 1016.76 1016.84 1016.99 1017.21 1017.50 1017.82 1018.13 1018.37 1018.51
1015.45 1016.17 1016.60 1016.64 1016.29 1015.60 1014.64 1013.58 1012.56 1011.75 1011.22 1011.01 1011.10 1011.40 1011.81 1012.21 1012.53 1012.72 1012.78 1012.77 1012.74 1012.75 1012.84 1013.03 1013.28 1013.56 1013.83 1014.06 1014.24 1014.38 1014.53 1014.70 1014.94 1015.24 1015.58 1015.92 1016.23 1016.48 1016.65 1016.76 1016.84 1016.95 1017.11 1017.35 1017.65 1017.98 1018.29 1018.52 1018.65
1015.52 1016.00 1016.17 1015.98 1015.47 1014.69 1013.75 1012.78 1011.91 1011.27 1010.90 1010.82 1010.99 1011.33 1011.74 1012.12 1012.43 1012.61 1012.71 1012.74 1012.77 1012.84 1012.97 1013.16 1013.40 1013.64 1013.84 1014.00 1014.13 1014.23 1014.36 1014.56 1014.82 1015.16 1015.55 1015.94 1016.28 1016.55 1016.74 1016.86 1016.96 1017.07 1017.23 1017.46 1017.76 1018.08 1018.38 1018.60 1018.72
1015.42 1015.67 1015.60 1015.22 1014.58 1013.76 1012.85 1011.98 1011.25 1010.75 1010.51 1010.52 1010.73 1011.07 1011.46 1011.82 1012.10 1012.30 1012.43 1012.52 1012.62 1012.76 1012.94 1013.16 1013.40 1013.61 1013.77 1013.89 1013.97 1014.06 1014.20 1014.41 1014.71 1015.10 1015.53 1015.96 1016.34 1016.64 1016.84 1016.97 1017.06 1017.16 1017.31 1017.53 1017.81 1018.11 1018.40 1018.61 1018.73
1015.16 1015.22 1014.96 1014.44 1013.72 1012.89 1012.03 1011.26 1010.64 1010.24 1010.08 1010.13 1010.35 1010.66 1011.00 1011.32 1011.59 1011.80 1011.97 1012.12 1012.29 1012.50 1012.74 1013.00 1013.24 1013.44 1013.58 1013.68 1013.76 1013.85 1014.01 1014.25 1014.60 1015.02 1015.49 1015.96 1016.37 1016.68 1016.90 1017.04 1017.13 1017.22 1017.36 1017.56 1017.81 1018.09 1018.36 1018.57 1018.70
1014.82 1014.72 1014.34 1013.73 1012.98 1012.16 1011.37 1010.68 1010.16 1009.83 1009.70 1009.75 1009.92 1010.18 1010.46 1010.72 1010.96 1011.17 1011.37 1011.57 1011.80 1012.07 1012.35 1012.64 1012.90 1013.11 1013.26 1013.37 1013.47 1013.59 1013.78 1014.07 1014.45 1014.92 1015.42 1015.91 1016.34 1016.68 1016.91 1017.05 1017.15 1017.25 1017.38 1017.56 1017.80 1018.07 1018.33 1018.54 1018.68
1014.47 1014.26 1013.80 1013.16 1012.42 1011.65 1010.94 1010.32 1009.86 1009.56 1009.43 1009.43 1009.54 1009.70 1009.90 1010.10 1010.29 1010.49 1010.69 1010.92 1011.19 1011.48 1011.80 1012.11 1012.39 1012.62 1012.81 1012.96 1013.10 1013.28 1013.52 1013.86 1014.29 1014.78 1015.31 1015.81 1016.25 1016.60 1016.86 1017.02 1017.14 1017.25 1017.40 1017.58 1017.82 1018.08 1018.35 1018.57 1018.73
1014.17 1013.90 1013.41 1012.79 1012.10 1011.41 1010.77 1010.23 1009.80 1009.49 1009.31 1009.24 1009.24 1009.30 1009.40 1009.52 1009.65 1009.81 1010.00 1010.22 1010.49 1010.79 1011.11 1011.44 1011.74 1012.02 1012.26 1012.48 1012.70 1012.95 1013.27 1013.66 1014.12 1014.64 1015.17 1015.68 1016.13 1016.49 1016.77 1016.96 1017.12 1017.26 1017.43 1017.64 1017.89 1018.17 1018.44 1018.68 1018.87
1013.97 1013.68 1013.22 1012.66 1012.04 1011.44 1010.87 1010.37 1009.94 1009.60 1009.35 1009.17 1009.05 1009.00 1008.98 1009.01 1009.08 1009.18 1009.32 1009.52 1009.76 1010.04 1010.36 1010.69 1011.02 1011.35 1011.67 1011.99 1012.31 1012.67 1013.07 1013.52 1014.02 1014.55 1015.08 1015.57 1016.01 1016.38 1016.67 1016.91 1017.10 1017.30 1017.51 1017.76 1018.04 1018.34 1018.63 1018.89 1019.11
1013.91 1013.63 1013.22 1012.73 1012.22 1011.70 1011.19 1010.71 1010.26 1009.86 1009.50 1009.20 1008.96 1008.77 1008.65 1008.58 1008.57 1008.61 1008.70 1008.84 1009.04 1009.29 1009.59 1009.93 1010.31 1010.71 1011.13 1011.56 1012.01 1012.48 1012.98 1013.49 1014.02 1014.55 1015.06 1015.53 1015.95 1016.32 1016.62 1016.88 1017.13 1017.37 1017.63 1017.92 1018.24 1018.56 1018.87 1019.16 1019.40
1013.96 1013.71 1013.38 1012.99 1012.57 1012.13 1011.67 1011.19 1010.70 1010.20 1009.72 1009.29 1008.91 1008.60 1008.36 1008.21 1008.12 1008.10 1008.14 1008.24 1008.39 1008.60 1008.89 1009.24 1009.67 1010.16 1010.69 1011.26 1011.85 1012.45 1013.04 1013.62 1014.17 1014.69 1015.17 1015.61 1015.99 1016.34 1016.64 1016.92 1017.20 1017.49 1017.79 1018.12 1018.45 1018.80 1019.13 1019.44 1019.70
1014.06 1013.88 1013.64 1013.36 1013.04 1012.67 1012.24 1011.75 1011.19 1010.58 1009.97 1009.40 1008.88 1008.45 1008.12 1007.89 1007.75 1007.68 1007.67 1007.72 1007.84 1008.03 1008.31 1008.69 1009.18 1009.76 1010.41 1011.12 1011.85 1012.57 1013.26 1013.90 1014.47 1014.98 1015.42 1015.81 1016.15 1016.46 1016.76 1017.04 1017.33 1017.64 1017.97 1018.31 1018.67 1019.02 1019.37 1019.68 1019.97
1014.16 1014.06 1013.94 1013.78 1013.57 1013.28 1012.87 1012.34 1011.70 1010.98 1010.23 1009.52 1008.87 1008.34 1007.93 1007.64 1007.46 1007.36 1007.33 1007.36 1007.46 1007.64 1007.92 1008.33 1008.88 1009.54 1010.31 1011.14 1012.00 1012.83 1013.61 1014.30 1014.88 1015.38 1015.79 1016.13 1016.42 1016.70 1016.96 1017.24 1017.53 1017.84 1018.17 1018.51 1018.86 1019.21 1019.55 1019.87 1020.17
1014.18 1014.20 1014.22 1014.21 1014.11 1013.89 1013.51 1012.95 1012.23 1011.39 1010.51 1009.67 1008.91 1008.29 1007.82 1007.49 1007.29 1007.19 1007.16 1007.18 1007.28 1007.46 1007.76 1008.20 1008.79 1009.52 1010.37 1011.30 1012.25 1013.17 1014.01 1014.74 1015.34 1015.82 1016.20 1016.51 1016.77 1017.01 1017.25 1017.51 1017.78 1018.08 1018.38 1018.70 1019.03 1019.36 1019.68 1020.00 1020.30
1014.08 1014.25 1014.44 1014.59 1014.63 1014.49 1014.14 1013.56 1012.77 1011.84 1010.85 1009.89 1009.04 1008.35 1007.84 1007.50 1007.31 1007.22 1007.20 1007.25 1007.36 1007.55 1007.85 1008.30 1008.91 1009.67 1010.57 1011.54 1012.54 1013.51 1014.39 1015.14 1015.75 1016.24 1016.61 1016.90 1017.15 1017.38 1017.60 1017.84 1018.09 1018.36 1018.63 1018.92 1019.20 1019.49 1019.79 1020.09 1020.39
1013.83 1014.19 1014.57 1014.90 1015.09 1015.06 1014.76 1014.18 1013.35 1012.34 1011.27 1010.23 1009.31 1008.58 1008.05 1007.72 1007.54 1007.49 1007.51 1007.58 1007.70 1007.90 1008.20 1008.63 1009.22 1009.97 1010.85 1011.82 1012.82 1013.79 1014.67 1015.43 1016.06 1016.56 1016.95 1017.26 1017.52 1017.76 1017.99 1018.22 1018.46 1018.70 1018.93 1019.17 1019.40 1019.64 1019.90 1020.17 1020.46
1013.46 1014.02 1014.60 1015.13 1015.48 1015.57 1015.35 1014.79 1013.95 1012.91 1011.78 1010.69 1009.74 1008.99 1008.47 1008.16 1008.02 1008.01 1008.07 1008.17 1008.31 1008.50 1008.78 1009.17 1009.71 1010.39 1011.20 1012.11 1013.05 1013.98 1014.84 1015.60 1016.23 1016.76 1017.19 1017.54 1017.85 1018.13 1018.39 1018.64 1018.88 1019.10 1019.29 1019.48 1019.66 1019.85 1020.06 1020.30 1020.56
1013.01 1013.76 1014.54 1015.25 1015.77 1015.99 1015.85 1015.35 1014.53 1013.49 1012.36 1011.27 1010.32 1009.58 1009.08 1008.81 1008.72 1008.76 1008.86 1008.99 1009.14 1009.32 1009.56 1009.88 1010.33 1010.92 1011.62 1012.42 1013.27 1014.12 1014.92 1015.66 1016.30 1016.86 1017.34 1017.76 1018.13 1018.48 1018.80 1019.08 1019.33 1019.54 1019.71 1019.85 1019.98 1020.12 1020.28 1020.47 1020.70
1012.53 1013.44 1014.40 1015.27 1015.93 1016.27 1016.23 1015.80 1015.04 1014.05 1012.96 1011.90 1010.99 1010.29 1009.85 1009.63 1009.60 1009.68 1009.83 1009.99 1010.15 1010.31 1010.50 1010.75 1011.10 1011.56 1012.13 1012.79 1013.52 1014.26 1015.00 1015.69 1016.34 1016.92 1017.45 1017.95 1018.40 1018.82 1019.20 1019.52 1019.80 1020.00 1020.16 1020.27 1020.36 1020.45 1020.56 1020.71 1020.89
1012.09 1013.12 1014.19 1015.18 1015.95 1016.38 1016.43 1016.09 1015.41 1014.50 1013.48 1012.51 1011.68 1011.06 1010.69 1010.54 1010.57 1010.72 1010.90 1011.09 1011.26 1011.41 1011.56 1011.74 1011.99 1012.33 1012.76 1013.28 1013.88 1014.51 1015.16 1015.80 1016.43 1017.03 1017.60 1018.16 1018.68 1019.16 1019.59 1019.96 1020.25 1020.47 1020.61 1020.70 1020.75 1020.80 1020.87 1020.97 1021.11
1011.73 1012.81 1013.94 1014.98 1015.80 1016.30 1016.42 1016.16 1015.58 1014.78 1013.89 1013.04 1012.32 1011.81 1011.54 1011.47 1011.57 1011.78 1012.01 1012.24 1012.42 1012.57 1012.69 1012.82 1013.00 1013.23 1013.55 1013.95 1014.42 1014.94 1015.50 1016.08 1016.67 1017.26 1017.85 1018.43 1018.99 1019.51 1019.98 1020.37 1020.68 1020.89 1021.03 1021.10 1021.12 1021.14 1021.18 1021.24 1021.33
1011.50 1012.56 1013.67 1014.69 1015.51 1016.02 1016.19 1016.01 1015.55 1014.88 1014.14 1013.44 1012.88 1012.50 1012.34 1012.37 1012.55 1012.82 1013.10 1013.36 1013.57 1013.73 1013.86 1013.96 1014.09 1014.27 1014.50 1014.80 1015.17 1015.59 1016.07 1016.57 1017.11 1017.66 1018.24 1018.81 1019.37 1019.89 1020.36 1020.75 1021.05 1021.26 1021.38 1021.43 1021.44 1021.44 1021.45 1021.48 1021.53
1011.41 1012.39 1013.41 1014.36 1015.11 1015.60 1015.79 1015.68 1015.33 1014.81 1014.25 1013.73 1013.34 1013.13 1013.09 1013.23 1013.48 1013.81 1014.14 1014.43 1014.68 1014.86 1015.00 1015.12 1015.24 1015.39 1015.58 1015.82 1016.12 1016.47 1016.85 1017.28 1017.75 1018.25 1018.76 1019.29 1019.81 1020.29 1020.73 1021.09 1021.36 1021.54 1021.65 1021.68 1021.68 1021.67 1021.65 1021.66 1021.68
1011.48 1012.34 1013.23 1014.04 1014.69 1015.12 1015.31 1015.26 1015.02 1014.67 1014.29 1013.97 1013.77 1013.72 1013.82 1014.06 1014.38 1014.75 1015.11 1015.44 1015.71 1015.92 1016.09 1016.24 1016.38 1016.53 1016.71 1016.93 1017.18 1017.47 1017.80 1018.15 1018.54 1018.96 1019.39 1019.84 1020.28 1020.70 1021.08 1021.38 1021.61 1021.76 1021.84 1021.86 1021.85 1021.82 1021.79 1021.77 1021.76
Thickness
5776 5777 5776 5768 5747 5724 5729 5746 5760 5768 5777 5788 5791 5784 5777 5771 5764 5762 5781 5789 5786 5781 5775 5771 5768 5765 5763 5761 5759 5757 5755 5754 5753 5752 5752 5751 5750 5749 5749 5748 5747 5747 5746 5746 5745 5744 5743 5742 5741
5775 5774 5766 5751 5726 5712 5725 5750 5760 5771 5784 5792 5791 5786 5779 5775 5780 5778 5781 5784 5784 5779 5775 5771 5767 5764 5761 5759 5756 5754 5752 5751 5749 5748 5748 5747 5746 5745 5745 5744 5744 5743 5743 5742 5741 5740 5739 5738 5738
5774 5771 5751 5733 5719 5716 5735 5760 5768 5780 5791 5791 5785 5785 5780 5776 5780 5781 5785 5784 5781 5777 5773 5770 5767 5764 5761 5758 5755 5753 5751 5749 5747 5745 5744 5744 5743 5742 5742 5741 5741 5740 5739 5738 5737 5736 5735 5735 5734
5767 5754 5740 5724 5723 5731 5746 5764 5773 5778 5787 5791 5785 5777 5782 5790 5788 5788 5787 5784 5780 5776 5773 5770 5768 5764 5761 5758 5755 5753 5750 5748 5746 5744 5743 5741 5740 5740 5739 5739 5738 5737 5736 5735 5734 5732 5731 5731 5731
5758 5740 5725 5714 5725 5740 5755 5769 5775 5776 5782 5788 5784 5774 5776 5789 5793 5790 5788 5784 5780 5776 5773 5771 5768 5765 5761 5759 5756 5753 5750 5748 5746 5743 5742 5740 5739 5738 5737 5736 5735 5735 5733 5732 5730 5729 5728 5728 5728
5738 5728 5709 5708 5724 5744 5759 5772 5777 5777 5781 5786 5782 5772 5774 5786 5789 5788 5787 5784 5781 5777 5774 5771 5768 5765 5761 5759 5756 5753 5750 5748 5745 5743 5741 5739 5738 5736 5735 5734 5733 5732 5730 5729 5727 5725 5724 5724 5724
5730 5718 5711 5717 5727 5742 5763 5776 5776 5778 5779 5784 5786 5771 5773 5782 5789 5790 5787 5783 5779 5776 5773 5770 5767 5764 5761 5758 5755 5752 5750 5747 5744 5742 5740 5738 5736 5735 5733 5732 5730 5728 5727 5725 5723 5721 5720 5720 5720
5738 5722 5719 5719 5730 5743 5767 5777 5782 5783 5783 5793 5791 5773 5771 5785 5790 5788 5784 5780 5777 5775 5772 5769 5767 5764 5761 5758 5755 5752 5749 5746 5744 5742 5739 5737 5735 5733 5731 5729 5727 5725 5723 5721 5719 5717 5716 5716 5716
5740 5715 5710 5724 5734 5749 5766 5770 5782 5792 5790 5791 5793 5791 5792 5794 5789 5783 5778 5774 5773 5773 5771 5769 5767 5764 5761 5758 5755 5752 5749 5746 5743 5740 5738 5736 5733 5731 5729 5726 5724 5722 5719 5717 5715 5713 5712 5712 5712
5729 5710 5720 5740 5750 5757 5763 5769 5778 5783 5783 5785 5787 5793 5797 5792 5786 5782 5778 5775 5773 5773 5772 5771 5768 5765 5762 5759 5756 5753 5749 5746 5742 5739 5737 5734 5731 5728 5726 5723 5721 5719 5716 5714 5712 5710 5709 5708 5707
5730 5723 5734 5747 5757 5761 5763 5771 5781 5779 5775 5785 5787 5788 5790 5788 5785 5784 5783 5782 5780 5778 5775 5773 5770 5767 5763 5760 5757 5753 5749 5745 5742 5738 5735 5732 5729 5726 5723 5720 5718 5716 5713 5711 5709 5706 5705 5704 5703
5728 5734 5742 5752 5761 5761 5764 5772 5777 5782 5789 5802 5802 5797 5791 5788 5788 5788 5788 5786 5783 5779 5778 5776 5773 5769 5765 5761 5757 5753 5749 5745 5742 5738 5734 5730 5726 5723 5720 5717 5715 5712 5710 5707 5705 5702 5700 5699 5698
5730 5737 5747 5753 5756 5760 5766 5769 5776 5785 5800 5804 5802 5795 5792 5792 5793 5794 5793 5790 5786 5782 5781 5779 5776 5772 5768 5763 5758 5754 5750 5746 5742 5737 5733 5729 5725 5721 5718 5715 5712 5710 5707 5704 5701 5698 5696 5694 5692
5735 5739 5745 5750 5755 5763 5765 5770 5776 5789 5800 5798 5796 5793 5793 5794 5794 5792 5791 5790 5789 5787 5784 5781 5777 5774 5769 5764 5760 5755 5750 5745 5740 5735 5732 5728 5724 5719 5715 5712 5709 5706 5703 5700 5697 5693 5690 5687 5685
5736 5735 5740 5749 5755 5762 5764 5762 5773 5790 5794 5791 5792 5793 5793 5794 5794 5795 5798 5797 5795 5792 5788 5783 5779 5774 5769 5764 5759 5754 5748 5742 5737 5732 5729 5725 5721 5716 5712 5708 5705 5701 5698 5695 5691 5687 5684 5681 5678
5729 5725 5722 5740 5751 5759 5756 5748 5774 5785 5785 5783 5786 5789 5790 5793 5796 5799 5800 5799 5796 5792 5788 5783 5779 5773 5768 5763 5757 5751 5744 5739 5734 5728 5724 5721 5717 5712 5707 5703 5699 5696 5693 5689 5684 5680 5676 5672 5669
5707 5706 5716 5731 5746 5749 5748 5747 5768 5778 5778 5778 5782 5785 5788 5789 5793 5799 5801 5799 5796 5792 5788 5783 5778 5772 5765 5759 5752 5746 5739 5733 5727 5722 5717 5714 5710 5705 5701 5697 5693 5689 5685 5681 5678 5672 5668 5663 5660
5696 5705 5712 5720 5734 5738 5737 5743 5760 5771 5772 5774 5778 5781 5784 5787 5796 5802 5801 5800 5796 5792 5787 5782 5776 5770 5763 5753 5745 5738 5731 5724 5719 5714 5710 5706 5702 5697 5693 5689 5684 5680 5676 5671 5667 5662 5658 5654 5651
5704 5705 5706 5714 5729 5730 5731 5735 5750 5763 5765 5768 5772 5777 5781 5789 5800 5800 5798 5797 5794 5790 5785 5780 5774 5768 5759 5749 5740 5730 5722 5716 5710 5704 5700 5696 5693 5689 5684 5680 5676 5672 5667 5663 5658 5653 5648 5644 5641
5696 5696 5700 5711 5724 5726 5725 5728 5746 5757 5762 5767 5769 5774 5779 5785 5788 5791 5793 5793 5792 5789 5784 5779 5773 5766 5757 5747 5737 5726 5716 5707 5700 5694 5689 5683 5682 5680 5677 5672 5667 5663 5657 5652 5649 5645 5639 5634 5631
5688 5689 5696 5701 5709 5715 5716 5715 5733 5752 5758 5762 5765 5769 5774 5778 5781 5784 5785 5786 5786 5782 5779 5776 5770 5760 5750 5740 5728 5716 5706 5696 5689 5682 5678 5673 5671 5669 5665 5662 5657 5653 5649 5644 5639 5636 5631 5624 5618
5679 5695 5697 5697 5690 5683 5699 5683 5715 5734 5739 5750 5755 5759 5764 5771 5775 5777 5779 5778 5777 5777 5775 5768 5760 5750 5741 5733 5723 5711 5699 5688 5679 5673 5667 5663 5661 5658 5654 5651 5647 5643 5639 5634 5629 5625 5621 5616 5609
5688 5698 5693 5692 5685 5678 5684 5678 5695 5719 5729 5739 5745 5749 5754 5760 5766 5769 5771 5771 5769 5767 5762 5755 5747 5739 5732 5724 5715 5704 5692 5681 5670 5663 5656 5652 5651 5648 5645 5641 5637 5633 5628 5623 5618 5614 5609 5604 5598
5693 5686 5676 5666 5664 5662 5679 5672 5683 5703 5717 5726 5734 5740 5745 5750 5755 5757 5759 5759 5755 5752 5748 5742 5734 5726 5720 5712 5703 5694 5684 5672 5663 5655 5649 5645 5641 5636 5634 5629 5625 5621 5616 5611 5606 5602 5596 5590 5585
5682 5662 5644 5649 5642 5653 5679 5675 5680 5703 5712 5717 5722 5728 5734 5739 5741 5743 5743 5742 5740 5736 5733 5727 5721 5713 5707 5700 5692 5684 5676 5666 5657 5650 5643 5637 5632 5627 5623 5619 5614 5609 5604 5599 5594 5589 5583 5577 5572
5672 5664 5644 5642 5644 5654 5672 5670 5682 5700 5708 5713 5716 5719 5722 5725 5727 5728 5728 5727 5725 5721 5718 5713 5707 5701 5694 5688 5680 5672 5665 5656 5649 5642 5635 5629 5623 5617 5612 5608 5602 5597 5591 5586 5580 5575 5569 5564 5558
5670 5664 5673 5653 5652 5651 5658 5671 5683 5694 5697 5701 5705 5707 5708 5710 5711 5711 5710 5709 5707 5704 5700 5697 5692 5685 5678 5673 5666 5659 5652 5645 5638 5631 5625 5619 5613 5606 5600 5594 5589 5583 5577 5571 5566 5560 5554 5548 5542
5686 5672 5654 5646 5638 5639 5655 5661 5661 5672 5680 5688 5692 5694 5695 5695 5695 5694 5693 5691 5688 5686 5682 5678 5673 5668 5662 5656 5650 5643 5637 5631 5625 5618 5612 5606 5599 5593 5587 5580 5573 5567 5561 5555 5549 5542 5536 5530 5524
5673 5668 5659 5648 5650 5640 5638 5648 5665 5666 5673 5678 5681 5682 5681 5681 5679 5677 5675 5673 5670 5668 5664 5660 5656 5651 5645 5638 5633 5626 5620 5614 5608 5602 5596 5590 5584 5578 5571 5563 5556 5550 5543 5537 5531 5524 5518 5512 5507
5679 5671 5657 5652 5649 5647 5644 5643 5663 5665 5670 5672 5671 5669 5668 5666 5664 5662 5660 5658 5656 5652 5648 5644 5639 5634 5628 5622 5615 5609 5603 5597 5592 5585 5579 5573 5566 5559 5552 5546 5539 5532 5525 5519 5513 5506 5500 5495 5490